{"data":{"norad_id":68240,"intl_designator":"2026-054J","name":"STARLINK-37092","alt_names":[],"object_type":"PAYLOAD","status":"ACTIVE","operator":null,"country":"US","launch_date":"2026-03-17","launch_site_code":"AFETR","launch_vehicle":null,"mission":null,"orbit_class":"UNKNOWN","rcs_meters":null,"size_class":null,"mass_kg":null,"dimensions":null,"purposes":["comms"],"wikipedia_slug":null,"has_3d_model":false,"image_url":null,"decayed_at":null,"tle_current":{"epoch":"2026-05-24T15:34:00.110496Z","epoch_age_seconds":105317,"freshness":"FRESH","line1":"1 68240U 26054J   26144.64861239  .00019515  00000+0  45673-3 0  9991","line2":"2 68240  53.1586 301.7963 0001279  35.3054 324.8036 15.42161466 10652","mean_motion":15.42161466,"eccentricity":0.0001279,"inclination_deg":53.1586,"raan_deg":301.7963,"arg_perigee_deg":35.3054,"mean_anomaly_deg":324.8036,"bstar":0.00045673,"rev_number":1065,"period_min":93.375436473265,"perigee_km":438.85932756051,"apogee_km":440.60333828007,"semimajor_km":6817.8683329203,"source":"CELESTRAK","updated_at":"2026-05-25T13:38:21.884520Z"}}}